Location: North Evanston
(42.0634°N, 87.6976°W)
Time: 21:35:14
(UTC+00:00)

Transit 2A - Pass Details

Date: 19 May 2026
Orbit: 595 x 948 km, 66.7° (Epoch: 9 June)

Event Time Altitude Azimuth Distance (km) Brightness Sun altitude
Rises 21:17:19 0° 232° (SW) 3,581 10.2 40.8°
Reaches altitude 10° 21:20:06 10° 240° (WSW) 2,614 9.8 40.3°
Maximum altitude 21:25:45 39° 308° (NW) 1,305 8.3 39.2°
Drops below altitude 10° 21:31:04 10° 17° (NNE) 2,444 8.5 38.3°
Sets 21:33:35 0° 25° (NNE) 3,323 9.0 37.8°
